PEGASUS DEB, 39321

Orbit data source: Space-Track

PEGASUS DEB, 39321 is space debris in LEO originally from a launch on Thu, 19 May 1994 UTC launched from the Air Force Western Test Range (AFWTR). Debris objects in space refer to the collection of defunct objects orbiting the Earth. Examples of debris include non-operational satellites, rocket bodies, and fragments generated from explosions, collisions, or faulty payload assembly.

Loading next visibility...
Identifier
39321, 1994-029AFG
Orbit
LEO
Country
Flag of USUS
Related business
Manufacturer
Unknown
Mission
Spacecraft
Bus & Motor
Unknown
Mass
Unknown
Launch date (UTC)
1994-05-19 (32 years ago)
Launch vehicle
Unknown
Launch site
Air Force Western Test Range (AFWTR)
Object type
Payload
Rocket body
Debris
Shape & HBR
Unknown shape, 0.1 m
Radar Cross Section
Small (<0.1 m²)

Expand to show TLE details & history
Last TLE update: 4 days ago

TLE from 4 days ago
0 PEGASUS DEB
1 39321U 94029AFG 26117.49756315  .00000678  00000-0  23008-3 0  9996
2 39321  82.2911 194.9086 0431952 313.8757  42.7467 13.94142319647181
Epoch: 2026-04-27T11:56Z
TLE epoch observation values (Epoch: 2026-04-27T11:56:29.456Z)
Latitude
0.00005°
Longitude
160.2995°
Altitude
692.286 km
Speed
7.625 km/s
True Right ascension
12h 59m 38s
True Declination
0° 00' 00"
Sunlit
Object was in full shadow at epoch
Visualization orbit readout
Latitude
Unknown
Longitude
Unknown
Altitude
Unknown
Speed
Unknown
Apparent Right ascension
Unknown
Apparent Declination
Unknown
Sunlit
N/A
Visualization observer readout
Local Sidereal Time
08:23:19
Azimuth
Unknown
Elevation
Unknown
Doppler factor
Unknown
Orbital elements
Apogee altitude
1,226.159 km
Perigee altitude
596.423 km
Semi-major axis
7,289.428 km
Eccentricity
0.0432
Inclination
82.2911°
RAAN
194.9086°
Arg. of periapsis
313.8757°
True anomaly
46.24272°
Mean anomaly
42.7467°
Eccentric anomaly
44.48079°
Mean motion
3.48741 °/min
Orbital period
103.23 mins
BSTAR
0.00023008
Loading maneuver chart data...
Computing Atmospheric mass density...

Documentation

Showing up to 5 results
|